CW1844 Weather Reports


time (UTC)temp
F
wind
direction
speed
knots
gust
knots
rain 1hr
in
rain 24hr
in
rain mn
in
humidity
%
barometer
mb
20260507040906 55 40 0.0 0.0 0.00 0.00 0.00 86 1018.6
20260507035929 56 40 0.0 0.0 0.00 0.00 0.00 85 1018.5
20260507034915 56 24 0.0 2.6 0.00 0.00 0.00 84 1018.3
20260507032908 57 347 1.7 1.7 0.00 0.00 0.00 82 1018.2
20260507031859 58 328 0.0 0.9 0.00 0.00 0.00 81 1018.2
20260507030858 58 328 0.0 3.5 0.00 0.00 0.00 80 1017.9
20260507023859 61 270 0.0 0.0 0.00 0.00 0.00 76 1017.5
20260507022922 62 286 0.0 0.0 0.00 0.00 0.00 75 1017.5
20260507021904 62 342 0.0 0.9 0.00 0.00 0.00 74 1017.4
20260507020858 63 263 0.0 0.0 0.00 0.00 0.00 73 1017.4
20260507015858 64 10 0.0 0.0 0.00 0.00 0.00 72 1017.5
20260507014915 64 360 0.0 0.0 0.00 0.00 0.00 72 1017.4
20260507013917 65 10 0.0 0.0 0.00 0.00 0.00 71 1017.4
20260507011905 66 328 0.0 0.0 0.00 0.00 0.00 69 1017.3
20260507005910 67 315 0.0 0.0 0.00 0.00 0.00 67 1017.4
20260507004914 68 10 0.0 0.0 0.00 0.00 0.00 66 1017.2
20260507003906 68 294 0.0 2.6 0.00 0.00 0.00 65 1017.2
20260507002927 69 334 2.6 8.7 0.00 0.00 0.00 64 1017.0
20260507001919 70 5 0.0 0.0 0.00 0.00 0.00 63 1017.0
20260507000918 71 285 0.0 0.0 0.00 0.00 0.00 61 1017.0
20260506234913 72 319 0.0 0.0 0.00 0.00 0.00 60 1016.9
20260506233905 72 355 0.0 0.0 0.00 0.00 0.00 60 1017.0
20260506232913 73 336 0.0 0.0 0.00 0.00 0.00 59 1017.1
20260506231905 74 304 0.0 0.0 0.00 0.00 0.00 56 1017.2
20260506230905 75 271 0.0 0.0 0.00 0.00 0.00 55 1017.2
20260506225923 77 21 0.0 0.0 0.00 0.00 0.00 54 1017.3
20260506224912 78 5 0.0 0.0 0.00 0.00 0.00 52 1017.4
20260506223857 79 5 0.0 0.0 0.00 0.00 0.00 50 1017.4
20260506222909 80 274 0.0 0.0 0.00 0.00 0.00 50 1017.4
20260506221855 81 136 0.0 0.0 0.00 0.00 0.00 47 1017.5
20260506220904 82 5 0.0 0.0 0.00 0.00 0.00 47 1017.6
20260506215909 82 333 0.0 0.0 0.00 0.00 0.00 46 1017.8
20260506214906 82 318 0.0 0.0 0.00 0.00 0.00 45 1017.8
20260506213906 83 330 0.0 0.0 0.00 0.00 0.00 44 1018.0
20260506212910 84 169 0.0 0.0 0.00 0.00 0.00 43 1018.1
20260506211856 83 141 0.0 0.0 0.00 0.00 0.00 43 1018.2
20260506210904 82 96 0.0 0.0 0.00 0.00 0.00 45 1018.2
20260506205901 82 205 0.0 0.0 0.00 0.00 0.00 46 1018.4
20260506204906 82 187 0.0 0.0 0.00 0.00 0.00 45 1018.4
20260506203902 81 19 0.0 0.0 0.00 0.00 0.00 46 1018.4
20260506200856 79 180 0.0 0.0 0.00 0.00 0.00 47 1018.8
20260506195902 78 155 0.0 0.0 0.00 0.00 0.00 47 1018.8
20260506194855 78 34 0.0 0.0 0.00 0.00 0.00 45 1018.9
20260506193907 77 190 0.0 0.0 0.00 0.00 0.00 48 1019.1
20260506192922 77 184 0.0 0.0 0.00 0.00 0.00 48 1019.1
20260506190904 76 202 0.0 0.0 0.00 0.00 0.00 50 1019.3
20260506185900 75 88 0.0 0.0 0.00 0.00 0.00 53 1019.3
20260506184855 73 163 0.0 0.0 0.00 0.00 0.00 54 1019.3
20260506183903 72 146 0.0 0.0 0.00 0.00 0.00 55 1019.4
20260506182914 71 337 0.0 0.0 0.00 0.00 0.00 55 1019.6
20260506180908 70 203 0.0 0.0 0.00 0.00 0.00 60 1019.7
20260506175855 68 203 0.0 0.0 0.00 0.00 0.00 61 1019.6
20260506174907 67 58 0.0 0.0 0.00 0.00 0.00 63 1019.7
20260506173902 66 155 0.0 0.0 0.00 0.00 0.00 67 1019.7
20260506172903 65 158 0.0 0.0 0.00 0.00 0.00 68 1019.7
20260506171902 64 157 0.0 0.0 0.00 0.00 0.00 70 1019.8
20260506170854 63 100 0.0 0.0 0.00 0.00 0.00 73 1019.9
20260506165904 62 100 0.0 0.0 0.00 0.00 0.00 74 1019.9
20260506164904 61 102 0.0 0.0 0.00 0.00 0.00 76 1019.9
20260506162952 58 15 0.0 0.0 0.00 0.00 0.00 86 1019.9
20260506161903 57 15 0.0 0.0 0.00 0.00 0.00 88 1019.9
20260506155903 55 16 0.0 0.0 0.00 0.00 0.00 94 1019.9
20260506153903 53 16 0.0 0.0 0.00 0.00 0.00 94 1019.9
20260506150903 52 16 0.0 0.0 0.00 0.00 0.00 94 1019.8
20260506145920 52 16 0.0 0.0 0.00 0.00 0.00 94 1019.8
20260506144904 52 16 0.0 0.0 0.00 0.00 0.00 94 1020.0
20260506143902 51 16 0.0 0.0 0.00 0.00 0.00 94 1019.9
20260506142903 51 16 0.0 0.0 0.00 0.00 0.00 94 1019.9
20260506141922 51 16 0.0 0.0 0.00 0.00 0.00 94 1019.8
20260506140900 51 16 0.0 0.0 0.00 0.00 0.00 93 1019.8
20260506135903 51 16 0.0 0.0 0.00 0.00 0.00 93 1019.7
20260506134908 51 16 0.0 0.0 0.00 0.00 0.00 93 1019.5
20260506133903 51 16 0.0 0.0 0.00 0.00 0.00 93 1019.5
20260506132903 51 16 0.0 0.0 0.00 0.00 0.00 93 1019.3
20260506131903 51 16 0.0 0.0 0.00 0.00 0.00 93 1019.2
20260506125906 51 16 0.0 0.0 0.00 0.00 0.00 93 1019.1
20260506124902 51 16 0.0 0.0 0.00 0.00 0.00 92 1019.0
20260506123903 51 16 0.0 0.0 0.00 0.00 0.00 92 1019.0
20260506122902 52 16 0.0 0.0 0.00 0.00 0.00 92 1018.9
20260506121903 52 16 0.0 0.0 0.00 0.00 0.00 92 1018.8
20260506120904 52 16 0.0 0.0 0.00 0.00 0.00 92 1018.8
20260506115904 52 16 0.0 0.0 0.00 0.00 0.00 92 1018.7
20260506114914 52 16 0.0 0.0 0.00 0.00 0.00 92 1018.7
20260506113904 52 16 0.0 0.0 0.00 0.00 0.00 92 1018.8
20260506112903 52 16 0.0 0.0 0.00 0.00 0.00 92 1018.7
20260506110916 52 16 0.0 0.0 0.00 0.00 0.00 92 1018.6
20260506105902 52 16 0.0 0.0 0.00 0.00 0.00 92 1018.5
20260506104901 52 16 0.0 0.0 0.00 0.00 0.00 92 1018.5
20260506103902 52 16 0.0 0.0 0.00 0.00 0.00 92 1018.5
20260506102903 52 16 0.0 0.0 0.00 0.00 0.00 92 1018.5
20260506101903 52 16 0.0 0.0 0.00 0.00 0.00 92 1018.6
20260506095937 52 16 0.0 0.0 0.00 0.00 0.00 91 1018.5
20260506094902 52 16 0.0 0.0 0.00 0.00 0.00 91 1018.4
20260506090853 53 16 0.0 0.0 0.00 0.00 0.00 90 1018.5
20260506085900 53 16 0.0 0.0 0.00 0.00 0.00 90 1018.4
20260506084903 53 16 0.0 0.0 0.00 0.00 0.00 90 1018.3
20260506082916 53 16 0.0 0.0 0.00 0.00 0.00 90 1018.4
20260506081902 53 16 0.0 0.0 0.00 0.00 0.00 90 1018.4
20260506080901 53 16 0.0 0.0 0.00 0.00 0.00 90 1018.4
20260506072904 54 16 0.0 0.0 0.00 0.00 0.00 89 1018.1
20260506071858 54 16 0.0 0.0 0.00 0.00 0.00 89 1018.1
20260506070902 54 16 0.0 0.0 0.00 0.00 0.00 89 1018.1
20260506061920 54 16 0.0 0.0 0.00 0.00 0.00 88 1017.8
20260506060900 54 19 0.0 0.0 0.00 0.00 0.00 88 1017.8
20260506044918 55 19 0.0 0.0 0.00 0.00 0.00 86 1017.3
20260506043930 55 19 0.0 0.0 0.00 0.00 0.00 85 1017.2
20260506042903 55 19 0.0 0.0 0.00 0.00 0.00 85 1017.1
20260506041904 55 19 0.0 0.0 0.00 0.00 0.00 84 1017.0